MEA426 OLBA-OMDB

Flight info

Callsign MEA426
Flight time 3h 17m
Altitude 33000
Route BASEM R785 ABBAS DCT TRF R23 NEVOL N318 TAMRO T503 KSA M440 SITER DCT SBT DCT TANSU G783 ASPED Q308 KIPOK Q568 IMPED
Aircraft A21N/M-SDE2E3FGHIJ1RWXY/LB1

Departure

Time 2026-04-22 04:25
Airport Beirut Rafic Hariri International Airport (OLBA)

Arrival

Time 2026-04-22 07:42
Airport Dubai International Airport (OMDB)
Time Latitude Longitude Altitude Speed Heading
2026-04-22 02:45 33.82418 35.49469 58 ft 0 kts 284°
2026-04-22 04:14 33.82418 35.49470 66 ft 1 kts 284°
2026-04-22 04:15 33.82414 35.49488 64 ft 3 kts 285°
2026-04-22 04:15 33.82409 35.49511 63 ft 3 kts 285°
2026-04-22 04:15 33.82403 35.49535 61 ft 3 kts 282°
2026-04-22 04:15 33.82400 35.49558 60 ft 3 kts 275°
2026-04-22 04:16 33.82402 35.49579 59 ft 3 kts 242°
2026-04-22 04:16 33.82425 35.49609 60 ft 1 kts 216°
2026-04-22 04:16 33.82426 35.49610 60 ft 0 kts 216°
2026-04-22 04:19 33.82417 35.49602 63 ft 3 kts 216°
2026-04-22 04:19 33.82395 35.49583 60 ft 5 kts 216°
2026-04-22 04:20 33.82363 35.49555 66 ft 6 kts 216°
2026-04-22 04:20 33.82321 35.49522 60 ft 8 kts 209°
2026-04-22 04:20 33.82263 35.49512 65 ft 10 kts 154°
2026-04-22 04:20 33.82211 35.49573 63 ft 11 kts 129°
2026-04-22 04:21 33.82232 35.49648 63 ft 13 kts 17°
2026-04-22 04:21 33.82304 35.49703 65 ft 0 kts 32°
2026-04-22 04:21 33.82310 35.49708 68 ft 2 kts 34°
2026-04-22 04:22 33.82329 35.49726 66 ft 5 kts 38°
2026-04-22 04:22 33.82363 35.49757 66 ft 7 kts 37°
2026-04-22 04:22 33.82408 35.49797 63 ft 9 kts 37°
2026-04-22 04:22 33.82465 35.49848 61 ft 11 kts 36°
2026-04-22 04:23 33.82532 35.49911 65 ft 13 kts 61°
2026-04-22 04:23 33.82530 35.49971 65 ft 6 kts 109°
2026-04-22 04:23 33.82509 35.50022 65 ft 8 kts 121°
2026-04-22 04:23 33.82475 35.50090 69 ft 11 kts 121°
2026-04-22 04:24 33.82420 35.50096 65 ft 7 kts 211°
2026-04-22 04:24 33.82398 35.50080 66 ft 0 kts 212°
2026-04-22 04:24 33.82245 35.49966 63 ft 60 kts 212°
2026-04-22 04:25 33.81702 35.49541 66 ft 125 kts 212°
2026-04-22 04:25 33.80812 35.48863 71 ft 173 kts 211°
2026-04-22 04:25 33.79830 35.48089 664 ft 165 kts 214°
2026-04-22 04:25 33.79019 35.47116 1222 ft 166 kts 236°
2026-04-22 04:26 33.78542 35.45881 1809 ft 164 kts 246°
2026-04-22 04:26 33.78080 35.44601 2242 ft 170 kts 239°
2026-04-22 04:26 33.77180 35.43735 2692 ft 169 kts 196°
2026-04-22 04:26 33.75999 35.43741 3111 ft 176 kts 168°
2026-04-22 04:27 33.74757 35.43677 3463 ft 187 kts 206°
2026-04-22 04:27 33.73866 35.42576 3947 ft 189 kts 246°
2026-04-22 04:27 33.73516 35.41051 4488 ft 194 kts 259°
2026-04-22 04:27 33.72903 35.39541 4839 ft 213 kts 229°
2026-04-22 04:28 33.71840 35.38237 5314 ft 224 kts 232°
2026-04-22 04:28 33.71148 35.36497 5606 ft 243 kts 260°
2026-04-22 04:28 33.71217 35.34409 5929 ft 261 kts 288°
2026-04-22 04:28 33.72158 35.32533 6517 ft 270 kts 316°
2026-04-22 04:29 33.73784 35.31414 7165 ft 275 kts 345°
2026-04-22 04:29 33.75705 35.31310 7905 ft 279 kts
2026-04-22 04:29 33.77639 35.31601 8664 ft 281 kts
2026-04-22 04:29 33.79590 35.31889 9411 ft 283 kts
2026-04-22 04:30 33.81555 35.32149 10126 ft 286 kts
2026-04-22 04:30 33.83542 35.32390 10753 ft 289 kts
2026-04-22 04:30 33.85542 35.32763 11404 ft 294 kts 12°
2026-04-22 04:30 33.87439 35.33773 12033 ft 303 kts 28°
2026-04-22 04:31 33.89186 35.35223 12676 ft 307 kts 32°
2026-04-22 04:31 33.90927 35.36743 13306 ft 311 kts 32°
2026-04-22 04:31 33.92691 35.38273 13921 ft 315 kts 32°
2026-04-22 04:31 33.94483 35.39811 14476 ft 318 kts 31°
2026-04-22 04:32 33.96297 35.41354 14977 ft 321 kts 31°
2026-04-22 04:32 33.98153 35.42922 15365 ft 332 kts 31°
2026-04-22 04:32 34.00061 35.44537 15852 ft 337 kts 31°
2026-04-22 04:32 34.01991 35.46165 16418 ft 341 kts 31°
2026-04-22 04:33 34.03942 35.47813 16998 ft 344 kts 31°
2026-04-22 04:33 34.05911 35.49472 17571 ft 347 kts 31°
2026-04-22 04:33 34.07898 35.51147 18134 ft 350 kts 31°
2026-04-22 04:33 34.09900 35.52839 18647 ft 353 kts 32°
2026-04-22 04:34 34.11916 35.54550 19137 ft 356 kts 32°
2026-04-22 04:34 34.13948 35.56278 19629 ft 359 kts 31°
2026-04-22 04:34 34.16002 35.58023 20104 ft 362 kts 31°
2026-04-22 04:34 34.17365 35.59182 20420 ft 364 kts 31°
2026-04-22 04:35 34.19443 35.60949 20885 ft 367 kts 31°
2026-04-22 04:35 34.21539 35.62736 21357 ft 370 kts 31°
2026-04-22 04:35 34.24333 35.65124 21968 ft 373 kts 32°
2026-04-22 04:35 34.26346 35.67134 22424 ft 380 kts 42°
2026-04-22 04:36 34.27530 35.68773 22722 ft 385 kts 51°
2026-04-22 04:36 34.28918 35.71570 23150 ft 392 kts 64°
2026-04-22 04:36 34.29698 35.74734 23554 ft 397 kts 82°
2026-04-22 04:36 34.29793 35.78088 23945 ft 400 kts 91°
2026-04-22 04:37 34.29630 35.82558 24402 ft 404 kts 93°
2026-04-22 04:37 34.29525 35.84850 24647 ft 406 kts 93°
2026-04-22 04:37 34.29377 35.88271 24995 ft 409 kts 93°
2026-04-22 04:37 34.29236 35.91714 25350 ft 411 kts 93°
2026-04-22 04:38 34.29098 35.95180 25721 ft 414 kts 93°
2026-04-22 04:38 34.28963 35.98668 26068 ft 417 kts 92°
2026-04-22 04:38 34.28826 36.02183 26410 ft 419 kts 93°
2026-04-22 04:38 34.28691 36.05717 26747 ft 422 kts 93°
2026-04-22 04:39 34.28555 36.09264 27078 ft 424 kts 92°
2026-04-22 04:39 34.28419 36.12842 27402 ft 427 kts 93°
2026-04-22 04:39 34.28279 36.16426 27704 ft 429 kts 93°
2026-04-22 04:39 34.28134 36.20040 28003 ft 431 kts 93°
2026-04-22 04:40 34.27986 36.23668 28296 ft 433 kts 93°
2026-04-22 04:40 34.27840 36.27263 28572 ft 435 kts 93°
2026-04-22 04:40 34.27687 36.30995 28661 ft 443 kts 93°
2026-04-22 04:40 34.27539 36.34711 29044 ft 441 kts 93°
2026-04-22 04:41 34.27383 36.38423 29373 ft 443 kts 93°
2026-04-22 04:41 34.27232 36.42091 29760 ft 441 kts 93°
2026-04-22 04:41 34.27077 36.45801 30049 ft 443 kts 93°
2026-04-22 04:41 34.26917 36.49578 30265 ft 445 kts 93°
2026-04-22 04:42 34.26737 36.53275 30450 ft 447 kts 96°
2026-04-22 04:42 34.26178 36.56975 30626 ft 447 kts 108°
2026-04-22 04:42 34.24999 36.60488 30786 ft 445 kts 122°
2026-04-22 04:42 34.23284 36.63582 30957 ft 442 kts 132°
2026-04-22 04:43 34.21382 36.66441 31119 ft 444 kts 133°
2026-04-22 04:43 34.19422 36.69335 31286 ft 446 kts 133°
2026-04-22 04:43 34.17475 36.72255 31467 ft 447 kts 133°
2026-04-22 04:43 34.15544 36.75187 31744 ft 445 kts 133°
2026-04-22 04:44 34.13622 36.78121 31974 ft 445 kts 133°
2026-04-22 04:44 34.11705 36.81055 32132 ft 447 kts 133°
2026-04-22 04:44 34.09772 36.84008 32275 ft 448 kts 133°
2026-04-22 04:44 34.07839 36.86962 32422 ft 450 kts 133°
2026-04-22 04:45 34.05895 36.89929 32541 ft 451 kts 133°
2026-04-22 04:45 34.03945 36.92903 32671 ft 453 kts 133°
2026-04-22 04:45 34.01988 36.95881 32816 ft 454 kts 133°
2026-04-22 04:45 34.00022 36.98865 32949 ft 455 kts 133°
2026-04-22 04:46 33.98052 37.01855 33078 ft 456 kts 133°
2026-04-22 04:46 33.94081 37.07891 33129 ft 464 kts 133°
2026-04-22 04:47 33.90020 37.14047 33107 ft 475 kts 133°
2026-04-22 04:47 33.85862 37.20327 33106 ft 485 kts 133°
2026-04-22 04:48 33.81620 37.26749 33097 ft 495 kts 133°
2026-04-22 04:48 33.77298 37.33270 33099 ft 499 kts 133°
2026-04-22 04:49 33.72965 37.39788 33091 ft 500 kts 133°
2026-04-22 04:49 33.68622 37.46316 33084 ft 500 kts 133°
2026-04-22 04:50 33.64276 37.52834 33084 ft 500 kts 133°
2026-04-22 04:50 33.59918 37.59344 33088 ft 500 kts 133°
2026-04-22 04:51 33.55176 37.65336 33086 ft 489 kts 149°
2026-04-22 04:51 33.52311 37.67435 33090 ft 480 kts 160°
2026-04-22 04:51 33.49312 37.69163 33084 ft 478 kts 162°
2026-04-22 04:52 33.43322 37.72501 33077 ft 478 kts 162°
2026-04-22 04:52 33.37339 37.76013 33073 ft 480 kts 160°
2026-04-22 04:53 33.31368 37.79579 33073 ft 480 kts 161°
2026-04-22 04:53 33.25384 37.83126 33067 ft 480 kts 161°
2026-04-22 04:54 33.19401 37.86673 33067 ft 480 kts 161°
2026-04-22 04:54 33.13409 37.90208 33066 ft 481 kts 161°
2026-04-22 04:55 33.07412 37.93745 33061 ft 481 kts 161°
2026-04-22 04:55 33.01404 37.97278 33062 ft 481 kts 161°
2026-04-22 04:56 32.95397 38.00800 33054 ft 482 kts 161°
2026-04-22 04:56 32.89382 38.04333 33057 ft 482 kts 161°
2026-04-22 04:57 32.83366 38.07860 33054 ft 482 kts 162°
2026-04-22 04:57 32.77341 38.11380 33048 ft 482 kts 162°
2026-04-22 04:58 32.71320 38.14903 33042 ft 483 kts 162°
2026-04-22 04:58 32.65297 38.18425 33037 ft 483 kts 162°
2026-04-22 04:59 32.59299 38.21915 33052 ft 483 kts 162°
2026-04-22 04:59 32.53267 38.25423 33053 ft 483 kts 162°
2026-04-22 05:00 32.47198 38.28951 33046 ft 483 kts 162°
2026-04-22 05:00 32.41195 38.32432 33055 ft 483 kts 162°
2026-04-22 05:01 32.35153 38.35926 33050 ft 483 kts 162°
2026-04-22 05:01 32.29114 38.39416 33048 ft 483 kts 162°
2026-04-22 05:02 32.23078 38.42902 33044 ft 483 kts 162°
2026-04-22 05:02 32.17038 38.46382 33047 ft 483 kts 162°
2026-04-22 05:03 32.10993 38.49862 33047 ft 483 kts 162°
2026-04-22 05:03 32.04945 38.53341 33043 ft 483 kts 162°
2026-04-22 05:04 31.98898 38.56808 33046 ft 484 kts 162°
2026-04-22 05:04 31.92846 38.60278 33057 ft 484 kts 162°
2026-04-22 05:05 31.86788 38.63742 33066 ft 484 kts 162°
2026-04-22 05:05 31.80748 38.67194 32963 ft 477 kts 161°
2026-04-22 05:06 31.74836 38.70573 33060 ft 471 kts 161°
2026-04-22 05:06 31.68964 38.74016 33082 ft 475 kts 156°
2026-04-22 05:07 31.63308 38.78058 33076 ft 476 kts 155°
2026-04-22 05:07 31.57663 38.82126 33074 ft 476 kts 155°
2026-04-22 05:08 31.52011 38.86174 33069 ft 476 kts 155°
2026-04-22 05:08 31.46354 38.90229 33066 ft 476 kts 155°
2026-04-22 05:09 31.40707 38.94277 33060 ft 476 kts 156°
2026-04-22 05:09 31.35051 38.98315 33062 ft 476 kts 156°
2026-04-22 05:10 31.29390 39.02347 33063 ft 477 kts 156°
2026-04-22 05:10 31.23726 39.06377 33060 ft 477 kts 156°
2026-04-22 05:11 31.18057 39.10410 33061 ft 477 kts 156°
2026-04-22 05:11 31.12377 39.14440 33064 ft 477 kts 156°
2026-04-22 05:12 31.06701 39.18464 33070 ft 478 kts 156°
2026-04-22 05:12 31.01047 39.22468 33072 ft 478 kts 156°
2026-04-22 05:13 30.95356 39.26495 33081 ft 479 kts 156°
2026-04-22 05:13 30.89627 39.30543 33079 ft 479 kts 156°
2026-04-22 05:14 30.83921 39.34568 33081 ft 479 kts 156°
2026-04-22 05:14 30.78255 39.38555 33078 ft 479 kts 157°
2026-04-22 05:15 30.72544 39.42563 33080 ft 480 kts 157°
2026-04-22 05:15 30.66838 39.46571 33085 ft 480 kts 157°
2026-04-22 05:16 30.61118 39.50576 33087 ft 480 kts 157°
2026-04-22 05:16 30.55403 39.54588 33092 ft 480 kts 157°
2026-04-22 05:17 30.49685 39.58588 33090 ft 480 kts 157°
2026-04-22 05:17 30.43972 39.62590 33090 ft 481 kts 156°
2026-04-22 05:17 30.41261 39.64938 33084 ft 494 kts 145°
2026-04-22 05:18 30.36831 39.71191 33097 ft 507 kts 132°
2026-04-22 05:18 30.32686 39.77796 33096 ft 507 kts 133°
2026-04-22 05:19 30.28487 39.84346 33097 ft 507 kts 133°
2026-04-22 05:19 30.24272 39.90870 33101 ft 507 kts 133°
2026-04-22 05:20 30.20051 39.97395 33100 ft 507 kts 133°
2026-04-22 05:20 30.16546 40.02819 33101 ft 507 kts 133°
2026-04-22 05:21 30.12324 40.09335 33115 ft 507 kts 133°
2026-04-22 05:21 30.08096 40.15852 33098 ft 507 kts 133°
2026-04-22 05:22 30.03867 40.22356 33091 ft 506 kts 134°
2026-04-22 05:22 29.99635 40.28856 33104 ft 507 kts 134°
2026-04-22 05:23 29.95400 40.35354 33097 ft 506 kts 134°
2026-04-22 05:23 29.91169 40.41839 33095 ft 506 kts 134°
2026-04-22 05:24 29.86930 40.48316 33095 ft 506 kts 134°
2026-04-22 05:24 29.82693 40.54789 33094 ft 506 kts 134°
2026-04-22 05:25 29.78447 40.61249 33095 ft 506 kts 134°
2026-04-22 05:25 29.74498 40.67992 33096 ft 511 kts 128°
2026-04-22 05:26 29.70768 40.74953 33091 ft 511 kts 128°
2026-04-22 05:26 29.67028 40.81900 33089 ft 511 kts 128°
2026-04-22 05:27 29.63282 40.88830 33085 ft 510 kts 128°
2026-04-22 05:27 29.59537 40.95757 33079 ft 510 kts 128°
2026-04-22 05:28 29.55788 41.02686 33071 ft 510 kts 128°
2026-04-22 05:28 29.52036 41.09605 33076 ft 510 kts 128°
2026-04-22 05:29 29.48275 41.16515 33075 ft 510 kts 128°
2026-04-22 05:29 29.44539 41.23380 33067 ft 511 kts 128°
2026-04-22 05:30 29.40748 41.30333 33062 ft 511 kts 128°
2026-04-22 05:30 29.37006 41.37180 33057 ft 511 kts 128°
2026-04-22 05:31 29.33222 41.44088 33059 ft 511 kts 129°
2026-04-22 05:31 29.29447 41.50986 33060 ft 511 kts 129°
2026-04-22 05:32 29.25665 41.57886 33053 ft 511 kts 129°
2026-04-22 05:32 29.21875 41.64770 33051 ft 512 kts 129°
2026-04-22 05:33 29.18089 41.71661 33048 ft 511 kts 129°
2026-04-22 05:33 29.14294 41.78541 33046 ft 511 kts 129°
2026-04-22 05:34 29.10489 41.85422 33048 ft 511 kts 129°
2026-04-22 05:34 29.06688 41.92294 33044 ft 511 kts 129°
2026-04-22 05:35 29.02878 41.99156 33044 ft 511 kts 129°
2026-04-22 05:35 28.99072 42.06018 33039 ft 511 kts 129°
2026-04-22 05:36 28.95258 42.12875 33035 ft 511 kts 129°
2026-04-22 05:36 28.91438 42.19718 33034 ft 511 kts 129°
2026-04-22 05:37 28.87626 42.26558 33031 ft 511 kts 129°
2026-04-22 05:37 28.83804 42.33389 33025 ft 511 kts 129°
2026-04-22 05:38 28.79970 42.40209 33022 ft 511 kts 129°
2026-04-22 05:38 28.76168 42.46980 33018 ft 511 kts 129°
2026-04-22 05:39 28.72347 42.53801 33011 ft 511 kts 129°
2026-04-22 05:39 28.68518 42.60618 33019 ft 510 kts 129°
2026-04-22 05:40 28.64647 42.67384 33007 ft 507 kts 133°
2026-04-22 05:40 28.60049 42.73338 33010 ft 499 kts 140°
2026-04-22 05:41 28.55305 42.79118 33005 ft 500 kts 140°
2026-04-22 05:41 28.50576 42.84908 33001 ft 500 kts 140°
2026-04-22 05:42 28.45845 42.90706 32998 ft 500 kts 140°
2026-04-22 05:42 28.41108 42.96494 32998 ft 500 kts 140°
2026-04-22 05:43 28.36383 43.02291 33002 ft 500 kts 140°
2026-04-22 05:43 28.31645 43.08067 33006 ft 500 kts 140°
2026-04-22 05:44 28.26907 43.13839 33010 ft 500 kts 140°
2026-04-22 05:44 28.22162 43.19615 33009 ft 500 kts 140°
2026-04-22 05:45 28.17421 43.25380 32999 ft 500 kts 140°
2026-04-22 05:45 28.12670 43.31136 32996 ft 500 kts 140°
2026-04-22 05:46 28.07916 43.36887 32999 ft 500 kts 140°
2026-04-22 05:46 28.03162 43.42642 32996 ft 500 kts 140°
2026-04-22 05:47 27.98411 43.48375 32995 ft 501 kts 140°
2026-04-22 05:47 27.93638 43.54131 32991 ft 501 kts 140°
2026-04-22 05:48 27.88858 43.59889 32994 ft 502 kts 140°
2026-04-22 05:48 27.84060 43.65609 32983 ft 500 kts 143°
2026-04-22 05:49 27.79073 43.71058 32990 ft 499 kts 144°
2026-04-22 05:49 27.74072 43.76490 32992 ft 499 kts 144°
2026-04-22 05:50 27.69100 43.81895 32989 ft 500 kts 143°
2026-04-22 05:50 27.64085 43.87335 32989 ft 500 kts 144°
2026-04-22 05:51 27.59071 43.92775 32991 ft 500 kts 144°
2026-04-22 05:51 27.54052 43.98208 32987 ft 500 kts 144°
2026-04-22 05:52 27.49032 44.03635 32989 ft 501 kts 144°
2026-04-22 05:52 27.44004 44.09060 32984 ft 501 kts 144°
2026-04-22 05:53 27.38960 44.14479 32988 ft 501 kts 144°
2026-04-22 05:53 27.33928 44.19895 32996 ft 501 kts 144°
2026-04-22 05:54 27.28889 44.25315 32988 ft 501 kts 144°
2026-04-22 05:54 27.23844 44.30738 32985 ft 502 kts 144°
2026-04-22 05:55 27.18803 44.36159 32980 ft 501 kts 144°
2026-04-22 05:55 27.13760 44.41571 32984 ft 502 kts 144°
2026-04-22 05:56 27.08708 44.46979 32980 ft 502 kts 144°
2026-04-22 05:56 27.03655 44.52397 32989 ft 503 kts 144°
2026-04-22 05:57 26.98595 44.57806 32984 ft 503 kts 144°
2026-04-22 05:57 26.93529 44.63206 32990 ft 503 kts 144°
2026-04-22 05:58 26.88463 44.68605 32996 ft 503 kts 144°
2026-04-22 05:58 26.85923 44.71301 33217 ft 502 kts 144°
2026-04-22 05:58 26.83406 44.73979 33601 ft 498 kts 144°
2026-04-22 05:59 26.80914 44.76635 34018 ft 493 kts 144°
2026-04-22 05:59 26.78429 44.79277 34188 ft 493 kts 144°
2026-04-22 05:59 26.75940 44.81914 34322 ft 494 kts 145°
2026-04-22 05:59 26.73435 44.84563 34432 ft 495 kts 145°
2026-04-22 06:00 26.70931 44.87208 34535 ft 497 kts 145°
2026-04-22 06:00 26.68417 44.89862 34650 ft 498 kts 145°
2026-04-22 06:00 26.65895 44.92526 34756 ft 499 kts 145°
2026-04-22 06:00 26.63363 44.95200 34851 ft 501 kts 145°
2026-04-22 06:01 26.60825 44.97874 34952 ft 502 kts 145°
2026-04-22 06:01 26.58277 45.00556 35008 ft 504 kts 145°
2026-04-22 06:01 26.53165 45.05951 35000 ft 506 kts 145°
2026-04-22 06:02 26.48076 45.11313 34986 ft 506 kts 145°
2026-04-22 06:02 26.42911 45.16732 34983 ft 506 kts 145°
2026-04-22 06:03 26.37819 45.22082 34982 ft 506 kts 145°
2026-04-22 06:03 26.32687 45.27455 34984 ft 506 kts 145°
2026-04-22 06:04 26.27560 45.32842 34985 ft 507 kts 145°
2026-04-22 06:04 26.22437 45.38232 34984 ft 506 kts 145°
2026-04-22 06:05 26.17314 45.43607 34986 ft 506 kts 145°
2026-04-22 06:05 26.12184 45.48986 34986 ft 506 kts 145°
2026-04-22 06:06 26.07059 45.54351 34983 ft 506 kts 145°
2026-04-22 06:06 26.01929 45.59717 34979 ft 506 kts 144°
2026-04-22 06:07 25.96798 45.65074 34979 ft 506 kts 144°
2026-04-22 06:07 25.92495 45.69560 34979 ft 506 kts 144°
2026-04-22 06:08 25.87360 45.74909 34979 ft 506 kts 144°
2026-04-22 06:08 25.82214 45.80259 34973 ft 506 kts 144°
2026-04-22 06:09 25.77074 45.85600 34975 ft 506 kts 144°
2026-04-22 06:09 25.71964 45.90901 34976 ft 507 kts 144°
2026-04-22 06:10 25.66815 45.96235 34979 ft 507 kts 144°
2026-04-22 06:10 25.61664 46.01566 34998 ft 507 kts 144°
2026-04-22 06:11 25.59087 46.04233 34886 ft 506 kts 144°
2026-04-22 06:11 25.56512 46.06895 34757 ft 506 kts 144°
2026-04-22 06:11 25.51367 46.12205 34771 ft 507 kts 144°
2026-04-22 06:12 25.46203 46.17527 34791 ft 507 kts 144°
2026-04-22 06:12 25.41041 46.22847 34792 ft 507 kts 144°
2026-04-22 06:13 25.35872 46.28163 34792 ft 507 kts 144°
2026-04-22 06:13 25.30703 46.33471 34791 ft 508 kts 144°
2026-04-22 06:14 25.25527 46.38782 34794 ft 508 kts 144°
2026-04-22 06:14 25.20350 46.44088 34797 ft 508 kts 144°
2026-04-22 06:15 25.15169 46.49390 34803 ft 508 kts 144°
2026-04-22 06:15 25.09993 46.54683 34815 ft 507 kts 144°
2026-04-22 06:16 25.04809 46.59974 34817 ft 507 kts 144°
2026-04-22 06:16 24.99691 46.65342 34807 ft 513 kts 138°
2026-04-22 06:17 24.97538 46.68525 34809 ft 524 kts 126°
2026-04-22 06:17 24.95937 46.72159 34822 ft 530 kts 116°
2026-04-22 06:17 24.93191 46.79709 34820 ft 530 kts 115°
2026-04-22 06:18 24.90414 46.87227 34811 ft 530 kts 116°
2026-04-22 06:18 24.87594 46.94723 34802 ft 529 kts 116°
2026-04-22 06:19 24.84791 47.02154 34790 ft 529 kts 116°
2026-04-22 06:19 24.81972 47.09630 34776 ft 529 kts 116°
2026-04-22 06:20 24.79148 47.17100 34776 ft 529 kts 116°
2026-04-22 06:20 24.76324 47.24563 34772 ft 529 kts 116°
2026-04-22 06:21 24.73488 47.32039 34767 ft 529 kts 116°
2026-04-22 06:21 24.70645 47.39514 34756 ft 530 kts 116°
2026-04-22 06:22 24.67796 47.47010 34756 ft 531 kts 116°
2026-04-22 06:22 24.64939 47.54502 34747 ft 531 kts 116°
2026-04-22 06:23 24.62078 47.61994 34742 ft 532 kts 116°
2026-04-22 06:23 24.59212 47.69484 34745 ft 532 kts 116°
2026-04-22 06:24 24.54965 47.80752 34734 ft 534 kts 113°
2026-04-22 06:25 24.52457 47.88439 34732 ft 535 kts 112°
2026-04-22 06:25 24.49951 47.96131 34731 ft 535 kts 112°
2026-04-22 06:26 24.47438 48.03817 34726 ft 535 kts 112°
2026-04-22 06:26 24.44921 48.11499 34723 ft 535 kts 112°
2026-04-22 06:27 24.42395 48.19181 34720 ft 535 kts 112°
2026-04-22 06:27 24.39867 48.26857 34716 ft 535 kts 112°
2026-04-22 06:28 24.37342 48.34532 34708 ft 534 kts 112°
2026-04-22 06:28 24.34816 48.42185 34710 ft 534 kts 112°
2026-04-22 06:29 24.32282 48.49852 34705 ft 534 kts 112°
2026-04-22 06:29 24.29744 48.57500 34700 ft 534 kts 112°
2026-04-22 06:30 24.27208 48.65143 34697 ft 533 kts 112°
2026-04-22 06:30 24.24666 48.72783 34692 ft 533 kts 112°
2026-04-22 06:31 24.22122 48.80417 34688 ft 533 kts 112°
2026-04-22 06:31 24.19592 48.87990 34688 ft 533 kts 112°
2026-04-22 06:32 24.17236 48.95696 34688 ft 534 kts 109°
2026-04-22 06:32 24.15030 49.03454 34686 ft 534 kts 109°
2026-04-22 06:33 24.12825 49.11207 34680 ft 534 kts 109°
2026-04-22 06:33 24.10608 49.18967 34676 ft 533 kts 109°
2026-04-22 06:34 24.08390 49.26711 34679 ft 534 kts 109°
2026-04-22 06:34 24.06173 49.34455 34677 ft 533 kts 109°
2026-04-22 06:35 24.03942 49.42202 34675 ft 533 kts 109°
2026-04-22 06:35 24.01712 49.49922 34674 ft 533 kts 109°
2026-04-22 06:36 23.99486 49.57653 34668 ft 532 kts 109°
2026-04-22 06:36 23.97254 49.65371 34672 ft 532 kts 109°
2026-04-22 06:37 23.95018 49.73073 34672 ft 532 kts 109°
2026-04-22 06:37 23.92780 49.80775 34671 ft 531 kts 109°
2026-04-22 06:38 23.90547 49.88462 34666 ft 531 kts 109°
2026-04-22 06:38 23.88303 49.96151 34660 ft 531 kts 109°
2026-04-22 06:39 23.86067 50.03781 34660 ft 531 kts 109°
2026-04-22 06:39 23.83823 50.11459 34660 ft 531 kts 109°
2026-04-22 06:40 23.81566 50.19128 34661 ft 530 kts 109°
2026-04-22 06:40 23.79321 50.26789 34657 ft 530 kts 109°
2026-04-22 06:41 23.77060 50.34451 34655 ft 530 kts 109°
2026-04-22 06:41 23.74800 50.42107 34653 ft 530 kts 109°
2026-04-22 06:42 23.72528 50.49752 34657 ft 529 kts 109°
2026-04-22 06:42 23.70259 50.57393 34660 ft 529 kts 109°
2026-04-22 06:43 23.67998 50.65030 34644 ft 529 kts 109°
2026-04-22 06:43 23.65727 50.72670 34649 ft 529 kts 109°
2026-04-22 06:44 23.63456 50.80298 34652 ft 529 kts 109°
2026-04-22 06:44 23.61176 50.87921 34646 ft 529 kts 109°
2026-04-22 06:45 23.58896 50.95545 34643 ft 528 kts 109°
2026-04-22 06:45 23.56607 51.03153 34638 ft 528 kts 109°
2026-04-22 06:46 23.54316 51.10752 34629 ft 528 kts 109°
2026-04-22 06:46 23.52039 51.18301 34631 ft 528 kts 109°
2026-04-22 06:47 23.49751 51.25896 34626 ft 528 kts 109°
2026-04-22 06:47 23.47468 51.33487 34634 ft 527 kts 109°
2026-04-22 06:48 23.45173 51.41071 34626 ft 527 kts 109°
2026-04-22 06:48 23.42872 51.48644 34623 ft 527 kts 109°
2026-04-22 06:49 23.40566 51.56225 34621 ft 527 kts 109°
2026-04-22 06:49 23.38255 51.63791 34620 ft 527 kts 109°
2026-04-22 06:50 23.35929 51.71357 34616 ft 527 kts 109°
2026-04-22 06:50 23.33602 51.78903 34617 ft 526 kts 109°
2026-04-22 06:51 23.31284 51.86465 34616 ft 526 kts 109°
2026-04-22 06:51 23.28983 51.94019 34617 ft 526 kts 109°
2026-04-22 06:52 23.26670 52.01571 34607 ft 526 kts 109°
2026-04-22 06:52 23.24350 52.09109 34610 ft 526 kts 109°
2026-04-22 06:53 23.22024 52.16636 34602 ft 525 kts 109°
2026-04-22 06:53 23.20073 52.22945 34604 ft 525 kts 109°
2026-04-22 06:54 23.17744 52.30456 34597 ft 525 kts 109°
2026-04-22 06:54 23.15526 52.38009 34596 ft 524 kts 102°
2026-04-22 06:55 23.15062 52.45784 34602 ft 518 kts 79°
2026-04-22 06:55 23.16187 52.53536 34603 ft 516 kts 77°
2026-04-22 06:56 23.17260 52.61198 34595 ft 516 kts 78°
2026-04-22 06:56 23.18277 52.68915 34601 ft 515 kts 78°
2026-04-22 06:57 23.19293 52.76623 34592 ft 515 kts 78°
2026-04-22 06:57 23.20305 52.84321 34594 ft 515 kts 78°
2026-04-22 06:58 23.21321 52.92024 34593 ft 515 kts 78°
2026-04-22 06:58 23.22324 52.99734 34589 ft 514 kts 78°
2026-04-22 06:59 23.23336 53.07421 34589 ft 514 kts 78°
2026-04-22 06:59 23.24332 53.15110 34587 ft 513 kts 78°
2026-04-22 07:00 23.25324 53.22796 34590 ft 513 kts 78°
2026-04-22 07:00 23.26313 53.30476 34591 ft 513 kts 78°
2026-04-22 07:01 23.27295 53.38153 34594 ft 512 kts 78°
2026-04-22 07:01 23.28272 53.45829 34598 ft 511 kts 78°
2026-04-22 07:02 23.29245 53.53484 34593 ft 511 kts 78°
2026-04-22 07:02 23.30212 53.61136 34599 ft 510 kts 79°
2026-04-22 07:03 23.31176 53.68782 34596 ft 510 kts 79°
2026-04-22 07:03 23.32134 53.76429 34590 ft 510 kts 79°
2026-04-22 07:04 23.33089 53.84070 34593 ft 509 kts 79°
2026-04-22 07:04 23.34035 53.91701 34593 ft 509 kts 79°
2026-04-22 07:05 23.34981 53.99331 34585 ft 508 kts 79°
2026-04-22 07:05 23.35923 54.06951 34588 ft 508 kts 79°
2026-04-22 07:06 23.36856 54.14573 34591 ft 508 kts 79°
2026-04-22 07:06 23.37790 54.22182 34589 ft 507 kts 79°
2026-04-22 07:07 23.38717 54.29784 34589 ft 507 kts 79°
2026-04-22 07:07 23.39639 54.37392 34593 ft 506 kts 79°
2026-04-22 07:08 23.40551 54.44934 34591 ft 506 kts 79°
2026-04-22 07:08 23.41471 54.52571 34583 ft 506 kts 79°
2026-04-22 07:09 23.42382 54.60166 34592 ft 505 kts 79°
2026-04-22 07:09 23.43279 54.67701 34589 ft 505 kts 79°
2026-04-22 07:10 23.44183 54.75279 34592 ft 505 kts 79°
2026-04-22 07:10 23.45081 54.82862 34596 ft 505 kts 80°
2026-04-22 07:11 23.45973 54.90436 34599 ft 504 kts 80°
2026-04-22 07:11 23.46863 54.98019 34595 ft 504 kts 80°
2026-04-22 07:12 23.47748 55.05590 34601 ft 504 kts 80°
2026-04-22 07:12 23.48625 55.13157 34605 ft 504 kts 80°
2026-04-22 07:13 23.49506 55.20723 34609 ft 503 kts 80°
2026-04-22 07:13 23.50567 55.28239 34604 ft 496 kts 71°
2026-04-22 07:14 23.52498 55.35400 34607 ft 487 kts 58°
2026-04-22 07:14 23.54348 55.38416 34615 ft 475 kts 42°
2026-04-22 07:14 23.56805 55.40722 34625 ft 461 kts 26°
2026-04-22 07:14 23.59668 55.42163 34624 ft 446 kts
2026-04-22 07:15 23.62683 55.42729 34630 ft 437 kts 359°
2026-04-22 07:15 23.68726 55.43716 34617 ft 443 kts
2026-04-22 07:16 23.74728 55.45359 34624 ft 445 kts
2026-04-22 07:16 23.80680 55.47125 34548 ft 439 kts
2026-04-22 07:16 23.83573 55.47990 34053 ft 435 kts
2026-04-22 07:17 23.86521 55.48872 33395 ft 433 kts
2026-04-22 07:17 23.89429 55.49738 32724 ft 431 kts
2026-04-22 07:17 23.92317 55.50598 32094 ft 429 kts 10°
2026-04-22 07:17 23.95152 55.51443 31490 ft 427 kts 10°
2026-04-22 07:18 23.98048 55.52305 30885 ft 424 kts 11°
2026-04-22 07:18 24.00799 55.53352 30284 ft 428 kts 23°
2026-04-22 07:18 24.03268 55.55200 29616 ft 432 kts 38°
2026-04-22 07:18 24.05478 55.57415 28873 ft 429 kts 40°
2026-04-22 07:19 24.07629 55.59649 28178 ft 424 kts 40°
2026-04-22 07:19 24.09776 55.61842 27563 ft 420 kts 40°
2026-04-22 07:19 24.11912 55.63987 26957 ft 415 kts 39°
2026-04-22 07:19 24.14039 55.66103 26358 ft 411 kts 39°
2026-04-22 07:20 24.16144 55.68192 25826 ft 407 kts 39°
2026-04-22 07:20 24.18237 55.70267 25316 ft 404 kts 39°
2026-04-22 07:20 24.20316 55.72325 24826 ft 401 kts 39°
2026-04-22 07:20 24.22376 55.74367 24344 ft 398 kts 39°
2026-04-22 07:21 24.24410 55.76394 23957 ft 395 kts 39°
2026-04-22 07:21 24.26445 55.78423 23836 ft 394 kts 39°
2026-04-22 07:21 24.28456 55.80424 23510 ft 390 kts 39°
2026-04-22 07:21 24.30453 55.82425 22963 ft 387 kts 40°
2026-04-22 07:22 24.32442 55.84401 22427 ft 384 kts 39°
2026-04-22 07:22 24.34418 55.86359 21921 ft 381 kts 40°
2026-04-22 07:22 24.36371 55.88301 21413 ft 378 kts 40°
2026-04-22 07:22 24.38316 55.90232 20922 ft 375 kts 39°
2026-04-22 07:23 24.40243 55.92136 20496 ft 370 kts 40°
2026-04-22 07:23 24.42136 55.94023 20063 ft 366 kts 40°
2026-04-22 07:23 24.44006 55.95890 19608 ft 362 kts 40°
2026-04-22 07:23 24.45863 55.97738 19020 ft 359 kts 40°
2026-04-22 07:24 24.47708 55.99571 18473 ft 356 kts 40°
2026-04-22 07:24 24.49531 56.01392 17960 ft 352 kts 40°
2026-04-22 07:24 24.51332 56.03195 17369 ft 348 kts 40°
2026-04-22 07:24 24.53113 56.04976 16821 ft 344 kts 40°
2026-04-22 07:25 24.54875 56.06737 16256 ft 341 kts 40°
2026-04-22 07:25 24.56623 56.08489 15641 ft 341 kts 40°
2026-04-22 07:25 24.58366 56.10251 15116 ft 340 kts 41°
2026-04-22 07:25 24.60190 56.11871 14864 ft 336 kts 27°
2026-04-22 07:26 24.62365 56.12724 14855 ft 330 kts
2026-04-22 07:26 24.64606 56.13131 14438 ft 325 kts
2026-04-22 07:26 24.66841 56.13478 13862 ft 325 kts
2026-04-22 07:26 24.69082 56.13835 13320 ft 325 kts
2026-04-22 07:27 24.71305 56.14218 12987 ft 319 kts
2026-04-22 07:27 24.73464 56.14605 12625 ft 311 kts
2026-04-22 07:27 24.75583 56.14995 12136 ft 307 kts
2026-04-22 07:27 24.77687 56.15383 11610 ft 307 kts
2026-04-22 07:28 24.81780 56.14901 10563 ft 296 kts 332°
2026-04-22 07:28 24.83607 56.13870 10086 ft 294 kts 330°
2026-04-22 07:28 24.85415 56.12844 9586 ft 291 kts 331°
2026-04-22 07:29 24.87208 56.11878 9016 ft 291 kts 332°
2026-04-22 07:29 24.89062 56.10921 8436 ft 291 kts 332°
2026-04-22 07:29 24.90877 56.10003 7878 ft 291 kts 333°
2026-04-22 07:29 24.92721 56.09099 7343 ft 290 kts 333°
2026-04-22 07:30 24.94569 56.08200 6892 ft 290 kts 333°
2026-04-22 07:30 24.96367 56.07205 6473 ft 288 kts 322°
2026-04-22 07:30 24.97708 56.05620 6008 ft 282 kts 295°
2026-04-22 07:30 24.98419 56.03642 5628 ft 274 kts 285°
2026-04-22 07:31 24.98977 56.01638 5231 ft 275 kts 285°
2026-04-22 07:31 24.99534 55.99637 5001 ft 267 kts 285°
2026-04-22 07:31 25.00082 55.97737 4960 ft 255 kts 285°
2026-04-22 07:31 25.00621 55.95883 4807 ft 252 kts 284°
2026-04-22 07:32 25.01161 55.94042 4435 ft 253 kts 285°
2026-04-22 07:32 25.01707 55.92197 4031 ft 253 kts 286°
2026-04-22 07:32 25.02252 55.90360 3662 ft 252 kts 286°
2026-04-22 07:32 25.02794 55.88527 3303 ft 251 kts 287°
2026-04-22 07:33 25.03336 55.86700 2968 ft 251 kts 287°
2026-04-22 07:33 25.03881 55.84875 2618 ft 250 kts 287°
2026-04-22 07:33 25.04425 55.83056 2272 ft 250 kts 288°
2026-04-22 07:33 25.04963 55.81253 2021 ft 243 kts 287°
2026-04-22 07:34 25.05462 55.79562 1967 ft 228 kts 287°
2026-04-22 07:34 25.05941 55.77925 1968 ft 224 kts 287°
2026-04-22 07:34 25.06420 55.76296 1975 ft 218 kts 288°
2026-04-22 07:34 25.06866 55.74781 1963 ft 198 kts 287°
2026-04-22 07:35 25.07287 55.73341 2009 ft 198 kts 287°
2026-04-22 07:35 25.07709 55.71891 2033 ft 198 kts 287°
2026-04-22 07:35 25.08100 55.70433 2024 ft 198 kts 282°
2026-04-22 07:35 25.08395 55.68945 2009 ft 199 kts 282°
2026-04-22 07:36 25.08773 55.67483 1994 ft 199 kts 288°
2026-04-22 07:36 25.09269 55.66060 1985 ft 199 kts 292°
2026-04-22 07:36 25.09853 55.64678 1989 ft 199 kts 296°
2026-04-22 07:36 25.10500 55.63318 1988 ft 199 kts 298°
2026-04-22 07:37 25.11172 55.61980 1985 ft 200 kts 298°
2026-04-22 07:37 25.11879 55.60657 1995 ft 200 kts 300°
2026-04-22 07:37 25.12605 55.59337 1988 ft 201 kts 300°
2026-04-22 07:37 25.13336 55.58015 1985 ft 202 kts 301°
2026-04-22 07:38 25.14068 55.56693 1993 ft 201 kts 301°
2026-04-22 07:38 25.14554 55.55815 1998 ft 203 kts 301°
2026-04-22 07:38 25.15481 55.54141 1993 ft 179 kts 300°
2026-04-22 07:38 25.16125 55.52977 1998 ft 176 kts 300°
2026-04-22 07:39 25.16767 55.51817 2006 ft 178 kts 300°
2026-04-22 07:39 25.17194 55.51045 1976 ft 177 kts 301°
2026-04-22 07:39 25.17837 55.49883 1973 ft 176 kts 300°
2026-04-22 07:39 25.18471 55.48738 1909 ft 172 kts 300°
2026-04-22 07:40 25.19084 55.47630 1728 ft 168 kts 301°
2026-04-22 07:40 25.19682 55.46549 1513 ft 157 kts 302°
2026-04-22 07:40 25.20228 55.45567 1240 ft 149 kts 303°
2026-04-22 07:40 25.20748 55.44646 974 ft 138 kts 303°
2026-04-22 07:41 25.21232 55.43738 815 ft 134 kts 303°
2026-04-22 07:41 25.21720 55.42858 727 ft 135 kts 306°
2026-04-22 07:41 25.22234 55.41976 594 ft 141 kts 305°
2026-04-22 07:41 25.22727 55.41051 420 ft 139 kts 304°
2026-04-22 07:42 25.23231 55.40141 203 ft 143 kts 306°
2026-04-22 07:42 25.23748 55.39217 37 ft 134 kts 304°
2026-04-22 07:42 25.24136 55.38501 36 ft 86 kts 300°
2026-04-22 07:42 25.24361 55.38094 36 ft 37 kts 300°
2026-04-22 07:43 25.24425 55.37975 36 ft 12 kts 291°
2026-04-22 07:43 25.24419 55.37911 35 ft 7 kts 263°
2026-04-22 07:43 25.24393 55.37864 32 ft 8 kts 222°
2026-04-22 07:43 25.24346 55.37824 29 ft 9 kts 232°
2026-04-22 07:44 25.24343 55.37755 28 ft 6 kts 309°
2026-04-22 07:44 25.24349 55.37749 28 ft 0 kts 316°
2026-04-22 07:45 25.24354 55.37742 28 ft 2 kts 305°
2026-04-22 07:45 25.24366 55.37723 28 ft 4 kts 305°
2026-04-22 07:46 25.24387 55.37689 28 ft 6 kts 304°
2026-04-22 07:46 25.24415 55.37641 28 ft 8 kts 300°
2026-04-22 07:46 25.24446 55.37576 28 ft 11 kts 303°
2026-04-22 07:46 25.24462 55.37546 28 ft 3 kts 305°
2026-04-22 07:47 25.24478 55.37521 28 ft 5 kts 305°
2026-04-22 07:47 25.24503 55.37482 28 ft 7 kts 304°
2026-04-22 07:47 25.24535 55.37426 28 ft 10 kts 300°
2026-04-22 07:47 25.24572 55.37354 28 ft 12 kts 300°
2026-04-22 07:48 25.24618 55.37267 28 ft 14 kts 300°
2026-04-22 07:48 25.24671 55.37171 29 ft 16 kts 301°
2026-04-22 07:48 25.24733 55.37062 29 ft 18 kts 304°
2026-04-22 07:48 25.24803 55.36944 29 ft 16 kts 297°
2026-04-22 07:49 25.24854 55.36828 28 ft 18 kts 288°
2026-04-22 07:49 25.24887 55.36690 28 ft 19 kts 292°
2026-04-22 07:49 25.24954 55.36554 28 ft 21 kts 302°
2026-04-22 07:49 25.25022 55.36427 28 ft 15 kts 308°
2026-04-22 07:50 25.25073 55.36337 28 ft 13 kts 301°
2026-04-22 07:50 25.25127 55.36251 28 ft 15 kts 306°
2026-04-22 07:50 25.25178 55.36157 27 ft 16 kts 301°
2026-04-22 07:50 25.25244 55.36043 27 ft 18 kts 307°
2026-04-22 07:51 25.25311 55.35921 27 ft 19 kts 301°
2026-04-22 07:51 25.25386 55.35790 27 ft 21 kts 301°
2026-04-22 07:51 25.25463 55.35649 27 ft 22 kts 301°
2026-04-22 07:51 25.25548 55.35500 27 ft 20 kts 302°
2026-04-22 07:52 25.25611 55.35391 27 ft 18 kts 302°
2026-04-22 07:52 25.25675 55.35274 27 ft 14 kts 305°
2026-04-22 07:52 25.25718 55.35192 27 ft 7 kts 283°
2026-04-22 07:52 25.25712 55.35133 27 ft 9 kts 231°
2026-04-22 07:53 25.25694 55.35066 27 ft 11 kts 289°
2026-04-22 07:53 25.25718 55.34974 27 ft 13 kts 264°
2026-04-22 07:53 25.25676 55.34950 27 ft 6 kts 187°
2026-04-22 07:53 25.25644 55.34926 27 ft 6 kts 238°
2026-04-22 07:54 25.25628 55.34878 27 ft 8 kts 277°
2026-04-22 07:54 25.25642 55.34844 27 ft 3 kts 308°
2026-04-22 07:54 25.25656 55.34820 27 ft 4 kts 301°
2026-04-22 07:54 25.25663 55.34806 27 ft 0 kts 301°